,,Stat6,,Stat2,,Stat8,,Stat9,,Stat10,,Wind1,,Wind1,
time,status,PA1M_AVG,status,PR1M_SUM,status,RH1M_AVG,status,SR1M_AVG,status,TA1M_AVG,status,W1dAve1m,status,W1sAve1m,
2005-12-29, 00:00:01,VALID,918.903,VALID,0,VALID,100,VALID,0.0339617,VALID,19.7977,VALID,306,VALID,0.396662,
2005-12-29, 00:01:01,VALID,918.886,VALID,0,VALID,100,VALID,0.118866,VALID,19.7982,VALID,314,VALID,0.36059,
2005-12-29, 00:02:01,VALID,918.861,VALID,0,VALID,100,VALID,0.101885,VALID,19.8004,VALID,314,VALID,0.264695,
2005-12-29, 00:03:01,VALID,918.849,VALID,0,VALID,100,VALID,0.0849042,VALID,19.8238,VALID,347,VALID,0.436228,
2005-12-29, 00:04:01,VALID,918.833,VALID,0,VALID,100,VALID,0.101885,VALID,19.8404,VALID,28,VALID,0.563743,
2005-12-29, 00:05:00,VALID,918.833,VALID,0,VALID,100,VALID,0.0849042,VALID,19.8141,VALID,19,VALID,0.528942,
2005-12-29, 00:06:01,VALID,918.829,VALID,0,VALID,100,VALID,0.101885,VALID,19.8146,VALID,7,VALID,0.347747,
2005-12-29, 00:07:01,VALID,918.822,VALID,0,VALID,100,VALID,0.0509425,VALID,19.7653,VALID,352,VALID,0.157203,
2005-12-29, 00:08:00,VALID,918.813,VALID,0.2,VALID,100,VALID,0.101885,VALID,19.7529,VALID,350,VALID,0.432813,
2005-12-29, 00:09:01,VALID,918.83,VALID,0,VALID,100,VALID,0.0509425,VALID,19.7564,VALID,324,VALID,0.462391,
2005-12-29, 00:10:00,VALID,918.819,VALID,0,VALID,100,VALID,0.0679233,VALID,19.7726,VALID,345,VALID,0.534624,
2005-12-29, 00:11:01,VALID,918.817,VALID,0.2,VALID,100,VALID,0.0849042,VALID,19.7524,VALID,345,VALID,0.630729,
2005-12-29, 00:12:01,VALID,918.787,VALID,0,VALID,100,VALID,0.0679233,VALID,19.7522,VALID,351,VALID,0.529652,
2005-12-29, 00:13:00,VALID,918.773,VALID,0,VALID,100,VALID,0.0679233,VALID,19.7561,VALID,352,VALID,0.598586,
2005-12-29, 00:14:01,VALID,918.757,VALID,0.2,VALID,100,VALID,0.0339617,VALID,19.7402,VALID,1,VALID,0.84375,
2005-12-29, 00:15:01,VALID,918.76,VALID,0,VALID,100,VALID,0.0509425,VALID,19.7114,VALID,349,VALID,0.664249,
2005-12-29, 00:16:01,VALID,918.776,VALID,0,VALID,100,VALID,0.0339617,VALID,19.6783,VALID,344,VALID,0.610328,
2005-12-29, 00:17:01,VALID,918.805,VALID,0,VALID,100,VALID,0.0679233,VALID,19.6686,VALID,330,VALID,0.677257,
2005-12-29, 00:18:01,VALID,918.828,VALID,0.2,VALID,100,VALID,0.0339617,VALID,19.6592,VALID,304,VALID,0.997461,
2005-12-29, 00:19:01,VALID,918.853,VALID,0,VALID,100,VALID,0.0849042,VALID,19.65,VALID,286,VALID,0.389027,
2005-12-29, 00:20:01,VALID,918.858,VALID,0,VALID,100,VALID,0.0509425,VALID,19.6236,VALID,287,VALID,0.304116,
2005-12-29, 00:21:01,VALID,918.854,VALID,0,VALID,100,VALID,0.0509425,VALID,19.6239,VALID,290,VALID,0.103743,
2005-12-29, 00:22:01,VALID,918.864,VALID,0,VALID,100,VALID,0.0679233,VALID,19.6338,VALID,340,VALID,0.590661,
2005-12-29, 00:23:00,VALID,918.862,VALID,0,VALID,100,VALID,0.0849042,VALID,19.6559,VALID,2,VALID,0.708333,
2005-12-29, 00:24:01,VALID,918.859,VALID,0,VALID,100,VALID,0.101885,VALID,19.6818,VALID,10,VALID,0.705305,
2005-12-29, 00:25:01,VALID,918.838,VALID,0,VALID,100,VALID,0.0849042,VALID,19.6552,VALID,344,VALID,0.807594,
2005-12-29, 00:26:01,VALID,918.826,VALID,0,VALID,100,VALID,0.101885,VALID,19.6629,VALID,327,VALID,0.540737,
2005-12-29, 00:27:01,VALID,918.802,VALID,0,VALID,100,VALID,0.0509425,VALID,19.643,VALID,321,VALID,0.255394,
2005-12-29, 00:28:01,VALID,918.763,VALID,0,VALID,100,VALID,0.0509425,VALID,19.65,VALID,321,VALID,0.0364583,
2005-12-29, 00:29:01,VALID,918.754,VALID,0,VALID,100,VALID,0.0509425,VALID,19.6363,VALID,310,VALID,0.0331101,
2005-12-29, 00:30:01,VALID,918.72,VALID,0,VALID,100,VALID,0.0849042,VALID,19.6527,VALID,309,VALID,0.0644985,
2005-12-29, 00:31:01,VALID,918.7,VALID,0,VALID,100,VALID,0.0849042,VALID,19.6492,VALID,309,VALID,0,
2005-12-29, 00:32:01,VALID,918.709,VALID,0,VALID,100,VALID,0.0849042,VALID,19.6594,VALID,309,VALID,0,
2005-12-29, 00:33:01,VALID,918.718,VALID,0,VALID,100,VALID,0.0679233,VALID,19.6783,VALID,322,VALID,0.313867,
2005-12-29, 00:34:01,VALID,918.737,VALID,0,VALID,100,VALID,0.0339617,VALID,19.6917,VALID,339,VALID,0.605741,
2005-12-29, 00:35:01,VALID,918.756,VALID,0,VALID,100,VALID,0.0169808,VALID,19.6589,VALID,336,VALID,0.931593,
2005-12-29, 00:36:01,VALID,918.748,VALID,0,VALID,100,VALID,0,VALID,19.6497,VALID,331,VALID,0.703516,
2005-12-29, 00:37:01,VALID,918.731,VALID,0,VALID,100,VALID,0.0169808,VALID,19.65,VALID,5,VALID,0.491678,
2005-12-29, 00:38:01,VALID,918.708,VALID,0,VALID,100,VALID,0.0169808,VALID,19.6626,VALID,1,VALID,0.368278,
2005-12-29, 00:39:01,VALID,918.667,VALID,0,VALID,100,VALID,0.0679233,VALID,19.6624,VALID,337,VALID,0.494792,
2005-12-29, 00:40:01,VALID,918.637,VALID,0,VALID,100,VALID,0.0169808,VALID,19.6457,VALID,336,VALID,0.30202,
2005-12-29, 00:41:01,VALID,918.592,VALID,0,VALID,100,VALID,0.0339617,VALID,19.6629,VALID,336,VALID,0.107639,
2005-12-29, 00:42:00,VALID,918.541,VALID,0,VALID,100,VALID,0.0169808,VALID,19.6791,VALID,335,VALID,0.143999,
2005-12-29, 00:43:00,VALID,918.486,VALID,0,VALID,100,VALID,0.0169808,VALID,19.643,VALID,310,VALID,0.267671,
2005-12-29, 00:44:00,VALID,918.456,VALID,0,VALID,100,VALID,0.0339617,VALID,19.6328,VALID,310,VALID,0.0930556,
2005-12-29, 00:45:00,VALID,918.432,VALID,0,VALID,100,VALID,0.0169808,VALID,19.6266,VALID,310,VALID,0.0053267,
2005-12-29, 00:46:00,VALID,918.427,VALID,0,VALID,100,VALID,0.0679233,VALID,19.6462,VALID,310,VALID,0,
2005-12-29, 00:47:00,VALID,918.431,VALID,0,VALID,100,VALID,0.0339617,VALID,19.6726,VALID,310,VALID,0,
2005-12-29, 00:48:00,VALID,918.422,VALID,0,VALID,100,VALID,0.0339617,VALID,19.6686,VALID,310,VALID,0.312872,
2005-12-29, 00:49:00,VALID,918.412,VALID,0,VALID,100,VALID,0.0339617,VALID,19.6552,VALID,310,VALID,0.0908203,
2005-12-29, 00:50:00,VALID,918.387,VALID,0,VALID,100,VALID,0.118866,VALID,19.6515,VALID,310,VALID,0.2742,
2005-12-29, 00:51:00,VALID,918.357,VALID,0,VALID,100,VALID,0.118866,VALID,19.6321,VALID,310,VALID,0.438834,
2005-12-29, 00:52:00,VALID,918.339,VALID,0,VALID,100,VALID,0.101885,VALID,19.6254,VALID,308,VALID,0.41543,
2005-12-29, 00:53:00,VALID,918.311,VALID,0,VALID,100,VALID,0.118866,VALID,19.6291,VALID,234,VALID,0.400923,
2005-12-29, 00:54:00,VALID,918.307,VALID,0.2,VALID,100,VALID,0.169808,VALID,19.6587,VALID,218,VALID,0.198153,
2005-12-29, 00:55:00,VALID,918.299,VALID,0,VALID,100,VALID,0.101885,VALID,19.6577,VALID,214,VALID,0.094122,
2005-12-29, 00:56:00,VALID,918.289,VALID,0,VALID,100,VALID,0.118866,VALID,19.6676,VALID,214,VALID,0.12221,
2005-12-29, 00:57:00,VALID,918.291,VALID,0,VALID,100,VALID,0.135847,VALID,19.6778,VALID,211,VALID,0.268787,
2005-12-29, 00:58:00,VALID,918.279,VALID,0.2,VALID,100,VALID,0.118866,VALID,19.6641,VALID,209,VALID,0.0703125,
2005-12-29, 00:59:00,VALID,918.277,VALID,0,VALID,100,VALID,0.118866,VALID,19.6582,VALID,200,VALID,0.339472,
2005-12-29, 01:00:00,VALID,918.271,VALID,0,VALID,100,VALID,0.101885,VALID,19.6415,VALID,194,VALID,0.210243,
2005-12-29, 01:01:00,VALID,918.27,VALID,0,VALID,100,VALID,0.0849042,VALID,19.6358,VALID,215,VALID,0.455788,
2005-12-29, 01:02:00,VALID,918.261,VALID,0.2,VALID,100,VALID,0.101885,VALID,19.6351,VALID,232,VALID,1.13377,
2005-12-29, 01:03:00,VALID,918.257,VALID,0,VALID,100,VALID,0.118866,VALID,19.6186,VALID,217,VALID,0.605015,
2005-12-29, 01:04:00,VALID,918.27,VALID,0,VALID,100,VALID,0.101885,VALID,19.6094,VALID,233,VALID,0.78853,
2005-12-29, 01:05:00,VALID,918.261,VALID,0.2,VALID,100,VALID,0.118866,VALID,19.5965,VALID,227,VALID,0.360305,
2005-12-29, 01:06:00,VALID,918.263,VALID,0,VALID,100,VALID,0.0849042,VALID,19.6,VALID,243,VALID,0.359375,
2005-12-29, 01:07:00,VALID,918.269,VALID,0,VALID,100,VALID,0.0679233,VALID,19.5933,VALID,243,VALID,0.158008,
2005-12-29, 01:08:00,VALID,918.261,VALID,0,VALID,100,VALID,0.118866,VALID,19.6002,VALID,243,VALID,0.220508,
2005-12-29, 01:09:00,VALID,918.257,VALID,0.2,VALID,100,VALID,0.135847,VALID,19.6094,VALID,243,VALID,0.0582541,
2005-12-29, 01:10:00,VALID,918.244,VALID,0,VALID,100,VALID,0.118866,VALID,19.5995,VALID,243,VALID,0.41875,
2005-12-29, 01:11:00,VALID,918.234,VALID,0.2,VALID,100,VALID,0.0849042,VALID,19.5868,VALID,230,VALID,0.547783,
2005-12-29, 01:12:00,VALID,918.229,VALID,0,VALID,100,VALID,0.118866,VALID,19.5841,VALID,225,VALID,0.44401,
2005-12-29, 01:13:00,VALID,918.206,VALID,0,VALID,100,VALID,0.118866,VALID,19.5833,VALID,221,VALID,0.478051,
2005-12-29, 01:14:00,VALID,918.189,VALID,0.2,VALID,100,VALID,0.101885,VALID,19.59,VALID,232,VALID,0.34718,
2005-12-29, 01:15:00,VALID,918.182,VALID,0,VALID,100,VALID,0.135847,VALID,19.5955,VALID,232,VALID,0.00223214,
2005-12-29, 01:16:00,VALID,918.162,VALID,0.2,VALID,100,VALID,0.101885,VALID,19.6415,VALID,232,VALID,0.120046,
2005-12-29, 01:17:00,VALID,918.148,VALID,0,VALID,100,VALID,0.135847,VALID,19.69,VALID,232,VALID,0.0512355,
2005-12-29, 01:18:00,VALID,918.147,VALID,0,VALID,100,VALID,0.101885,VALID,19.7099,VALID,310,VALID,0.384629,
2005-12-29, 01:19:00,VALID,918.129,VALID,0.2,VALID,100,VALID,0.101885,VALID,19.7166,VALID,5,VALID,0.584409,
2005-12-29, 01:20:00,VALID,918.119,VALID,0,VALID,100,VALID,0.101885,VALID,19.7094,VALID,5,VALID,0.344295,
2005-12-29, 01:21:00,VALID,918.118,VALID,0.2,VALID,100,VALID,0.118866,VALID,19.7258,VALID,5,VALID,0.126453,
2005-12-29, 01:22:00,VALID,918.117,VALID,0,VALID,100,VALID,0.135847,VALID,19.7355,VALID,5,VALID,0.0939276,
2005-12-29, 01:23:00,VALID,918.125,VALID,0.2,VALID,100,VALID,0.101885,VALID,19.7447,VALID,5,VALID,0.422602,
2005-12-29, 01:24:00,VALID,918.107,VALID,0,VALID,100,VALID,0.101885,VALID,19.7614,VALID,5,VALID,0.0882241,
2005-12-29, 01:25:00,VALID,918.092,VALID,0.2,VALID,100,VALID,0.152827,VALID,19.7673,VALID,6,VALID,0.116616,
2005-12-29, 01:26:00,VALID,918.065,VALID,0,VALID,100,VALID,0.135847,VALID,19.7648,VALID,6,VALID,0,
2005-12-29, 01:27:00,VALID,918.038,VALID,0,VALID,100,VALID,0.118866,VALID,19.7382,VALID,6,VALID,0.0477834,
2005-12-29, 01:28:00,VALID,918.013,VALID,0.2,VALID,100,VALID,0.135847,VALID,19.732,VALID,6,VALID,0.186047,
2005-12-29, 01:29:00,VALID,918,VALID,0,VALID,100,VALID,0.101885,VALID,19.7358,VALID,6,VALID,0,
2005-12-29, 01:30:00,VALID,918.009,VALID,0,VALID,100,VALID,0.135847,VALID,19.7517,VALID,6,VALID,0.411644,
2005-12-29, 01:31:00,VALID,917.997,VALID,0,VALID,100,VALID,0.152827,VALID,19.7579,VALID,10,VALID,0.810082,
2005-12-29, 01:32:00,VALID,918.008,VALID,0,VALID,100,VALID,0.135847,VALID,19.7519,VALID,13,VALID,0.828852,
2005-12-29, 01:33:00,VALID,917.998,VALID,0,VALID,100,VALID,0.118866,VALID,19.6835,VALID,326,VALID,0.688889,
2005-12-29, 01:34:00,VALID,917.984,VALID,0,VALID,100,VALID,0.0849042,VALID,19.5903,VALID,316,VALID,0.380273,
2005-12-29, 01:35:00,VALID,917.958,VALID,0,VALID,100,VALID,0.0679233,VALID,19.5396,VALID,232,VALID,0.603609,
2005-12-29, 01:36:00,VALID,917.938,VALID,0,VALID,100,VALID,0.0509425,VALID,19.5328,VALID,238,VALID,0.123958,
2005-12-29, 01:37:00,VALID,917.923,VALID,0,VALID,100,VALID,0.0169808,VALID,19.5361,VALID,204,VALID,0.409549,
2005-12-29, 01:38:00,VALID,917.917,VALID,0,VALID,100,VALID,0.0509425,VALID,19.5269,VALID,200,VALID,0.166921,
2005-12-29, 01:39:00,VALID,917.933,VALID,0,VALID,100,VALID,0.0339617,VALID,19.5425,VALID,202,VALID,0.0333807,
2005-12-29, 01:40:00,VALID,917.944,VALID,0,VALID,100,VALID,0.0339617,VALID,19.5525,VALID,202,VALID,0.000545058,
2005-12-29, 01:41:00,VALID,917.962,VALID,0,VALID,100,VALID,0.0169808,VALID,19.5689,VALID,202,VALID,0.000545058,
2005-12-29, 01:42:00,VALID,917.962,VALID,0,VALID,100,VALID,0.0169808,VALID,19.5823,VALID,202,VALID,0,
2005-12-29, 01:43:00,VALID,917.944,VALID,0,VALID,100,VALID,0.0339617,VALID,19.5851,VALID,205,VALID,0.120722,
2005-12-29, 01:44:00,VALID,917.943,VALID,0,VALID,100,VALID,0.0169808,VALID,19.5719,VALID,210,VALID,0.29184,
2005-12-29, 01:45:00,VALID,917.944,VALID,0,VALID,100,VALID,0.0509425,VALID,19.5913,VALID,210,VALID,0.110137,
2005-12-29, 01:46:00,VALID,917.951,VALID,0,VALID,100,VALID,0.0509425,VALID,19.5716,VALID,210,VALID,0,
2005-12-29, 01:47:00,VALID,917.956,VALID,0,VALID,100,VALID,0.0169808,VALID,19.588,VALID,210,VALID,0,
2005-12-29, 01:48:00,VALID,917.984,VALID,0,VALID,100,VALID,0.0679233,VALID,19.5781,VALID,210,VALID,0,
2005-12-29, 01:49:00,VALID,917.984,VALID,0,VALID,100,VALID,0.0509425,VALID,19.5851,VALID,210,VALID,0,
2005-12-29, 01:50:00,VALID,917.982,VALID,0,VALID,100,VALID,0.0679233,VALID,19.5945,VALID,210,VALID,0,
2005-12-29, 01:51:00,VALID,917.981,VALID,0,VALID,100,VALID,0.0339617,VALID,19.5813,VALID,210,VALID,0,
2005-12-29, 01:52:00,VALID,917.979,VALID,0.2,VALID,100,VALID,0.0339617,VALID,19.5915,VALID,210,VALID,0,
2005-12-29, 01:53:00,VALID,917.968,VALID,0,VALID,100,VALID,0.0339617,VALID,19.6007,VALID,209,VALID,0.212536,
2005-12-29, 01:54:00,VALID,917.967,VALID,0,VALID,100,VALID,0.0679233,VALID,19.6074,VALID,224,VALID,0.113889,
2005-12-29, 01:55:00,VALID,917.955,VALID,0,VALID,100,VALID,0.0339617,VALID,19.601,VALID,353,VALID,0.508903,
2005-12-29, 01:56:00,VALID,917.944,VALID,0,VALID,100,VALID,0,VALID,19.6336,VALID,41,VALID,0.524554,
2005-12-29, 01:57:00,VALID,917.94,VALID,0,VALID,100,VALID,0.0339617,VALID,19.643,VALID,38,VALID,0.548781,
2005-12-29, 01:58:00,VALID,917.938,VALID,0,VALID,100,VALID,0.0169808,VALID,19.6587,VALID,28,VALID,0.729167,
2005-12-29, 01:59:00,VALID,917.947,VALID,0,VALID,100,VALID,0.0849042,VALID,19.6718,VALID,22,VALID,0.745276,
2005-12-29, 02:00:00,VALID,917.956,VALID,0,VALID,100,VALID,0.0339617,VALID,19.6945,VALID,22,VALID,0.698742,
2005-12-29, 02:01:00,VALID,917.973,VALID,0,VALID,100,VALID,0.0679233,VALID,19.7074,VALID,25,VALID,0.846418,
2005-12-29, 02:02:00,VALID,917.992,VALID,0,VALID,100,VALID,0.0339617,VALID,19.7047,VALID,28,VALID,0.450707,
2005-12-29, 02:03:00,VALID,917.987,VALID,0,VALID,100,VALID,0.0849042,VALID,19.6786,VALID,28,VALID,0,
2005-12-29, 02:04:00,VALID,917.99,VALID,0,VALID,100,VALID,0.0169808,VALID,19.6465,VALID,27,VALID,0.25436,
2005-12-29, 02:05:00,VALID,917.985,VALID,0,VALID,100,VALID,0.0339617,VALID,19.6368,VALID,25,VALID,0.262536,
2005-12-29, 02:06:00,VALID,917.969,VALID,0,VALID,100,VALID,0.0509425,VALID,19.6393,VALID,24,VALID,0.313262,
2005-12-29, 02:07:00,VALID,917.953,VALID,0,VALID,100,VALID,0.0339617,VALID,19.643,VALID,22,VALID,0.553125,
2005-12-29, 02:08:00,VALID,917.935,VALID,0,VALID,100,VALID,0.0339617,VALID,19.6333,VALID,17,VALID,0.600818,
2005-12-29, 02:09:00,VALID,917.915,VALID,0,VALID,100,VALID,0.0339617,VALID,19.6467,VALID,14,VALID,0.561967,
2005-12-29, 02:10:00,VALID,917.9,VALID,0,VALID,100,VALID,0.0509425,VALID,19.6465,VALID,7,VALID,0.472098,
2005-12-29, 02:11:00,VALID,917.878,VALID,0,VALID,100,VALID,0.0339617,VALID,19.6166,VALID,10,VALID,0.584821,
2005-12-29, 02:12:00,VALID,917.886,VALID,0,VALID,100,VALID,0.0339617,VALID,19.6171,VALID,11,VALID,0.795387,
2005-12-29, 02:13:00,VALID,917.885,VALID,0,VALID,100,VALID,0.0679233,VALID,19.5848,VALID,2,VALID,0.391555,
2005-12-29, 02:14:00,VALID,917.88,VALID,0,VALID,100,VALID,0.0509425,VALID,19.588,VALID,2,VALID,0.155488,
2005-12-29, 02:15:00,VALID,917.867,VALID,0,VALID,100,VALID,0.0169808,VALID,19.6079,VALID,2,VALID,0,
2005-12-29, 02:16:00,VALID,917.863,VALID,0,VALID,100,VALID,0.0169808,VALID,19.6107,VALID,4,VALID,0.00093006,
2005-12-29, 02:17:00,VALID,917.833,VALID,0,VALID,100,VALID,0.0679233,VALID,19.6239,VALID,8,VALID,0.195126,
2005-12-29, 02:18:00,VALID,917.816,VALID,0,VALID,100,VALID,0.0509425,VALID,19.6432,VALID,12,VALID,0.162919,
2005-12-29, 02:19:00,VALID,917.791,VALID,0,VALID,100,VALID,0.0509425,VALID,19.6174,VALID,12,VALID,0.0294331,
2005-12-29, 02:20:00,VALID,917.758,VALID,0,VALID,100,VALID,0.0679233,VALID,19.5873,VALID,359,VALID,0.0527344,
2005-12-29, 02:21:00,VALID,917.74,VALID,0,VALID,100,VALID,0.0679233,VALID,19.5714,VALID,358,VALID,0.0380435,
2005-12-29, 02:22:00,VALID,917.719,VALID,0,VALID,100,VALID,0.0849042,VALID,19.5555,VALID,358,VALID,0.00285823,
2005-12-29, 02:23:00,VALID,917.666,VALID,0,VALID,100,VALID,0.0679233,VALID,19.546,VALID,3,VALID,0.302144,
2005-12-29, 02:24:00,VALID,917.638,VALID,0,VALID,100,VALID,0.101885,VALID,19.5552,VALID,21,VALID,0.526867,
2005-12-29, 02:25:00,VALID,917.596,VALID,0,VALID,100,VALID,0.0849042,VALID,19.5848,VALID,20,VALID,0.268709,
2005-12-29, 02:26:00,VALID,917.562,VALID,0,VALID,100,VALID,0.101885,VALID,19.5846,VALID,20,VALID,0.00285823,
2005-12-29, 02:27:00,VALID,917.525,VALID,0,VALID,100,VALID,0.0679233,VALID,19.6104,VALID,20,VALID,0.000868056,
2005-12-29, 02:28:00,VALID,917.495,VALID,0,VALID,100,VALID,0.0679233,VALID,19.6114,VALID,20,VALID,0,
2005-12-29, 02:29:00,VALID,917.459,VALID,0,VALID,100,VALID,0.0849042,VALID,19.6112,VALID,20,VALID,0.00381541,
2005-12-29, 02:30:00,VALID,917.425,VALID,0,VALID,100,VALID,0.0679233,VALID,19.5975,VALID,22,VALID,0.324777,
2005-12-29, 02:31:00,VALID,917.38,VALID,0,VALID,100,VALID,0.0509425,VALID,19.5813,VALID,27,VALID,0.671342,
2005-12-29, 02:32:00,VALID,917.341,VALID,0,VALID,100,VALID,0.0509425,VALID,19.5657,VALID,23,VALID,0.399219,
2005-12-29, 02:33:00,VALID,917.295,VALID,0,VALID,100,VALID,0.0679233,VALID,19.5266,VALID,23,VALID,0.19549,
2005-12-29, 02:34:00,VALID,917.263,VALID,0,VALID,100,VALID,0.0849042,VALID,19.5204,VALID,23,VALID,0.0863009,
2005-12-29, 02:35:00,VALID,917.241,VALID,0,VALID,100,VALID,0.186789,VALID,19.5152,VALID,23,VALID,0.456214,
2005-12-29, 02:36:00,VALID,917.208,VALID,0,VALID,100,VALID,0.186789,VALID,19.5286,VALID,21,VALID,0.516927,
2005-12-29, 02:37:00,VALID,917.177,VALID,0,VALID,100,VALID,0.20377,VALID,19.4809,VALID,5,VALID,0.464236,
2005-12-29, 02:38:00,VALID,917.131,VALID,0,VALID,100,VALID,0.186789,VALID,19.454,VALID,16,VALID,0.59561,
2005-12-29, 02:39:00,VALID,917.102,VALID,0,VALID,100,VALID,0.186789,VALID,19.4347,VALID,14,VALID,0.925781,
2005-12-29, 02:40:00,VALID,917.045,VALID,0,VALID,100,VALID,0.220751,VALID,19.4222,VALID,19,VALID,0.95419,
2005-12-29, 02:41:00,VALID,917.024,VALID,0,VALID,100,VALID,0.220751,VALID,19.3956,VALID,8,VALID,0.774581,
2005-12-29, 02:42:00,VALID,916.977,VALID,0,VALID,100,VALID,0.20377,VALID,19.4033,VALID,17,VALID,0.756138,
2005-12-29, 02:43:00,VALID,916.963,VALID,0,VALID,100,VALID,0.186789,VALID,19.3839,VALID,360,VALID,1.04959,
2005-12-29, 02:44:00,VALID,916.955,VALID,0,VALID,100,VALID,0.220751,VALID,19.3541,VALID,5,VALID,1.16355,
2005-12-29, 02:45:00,VALID,916.96,VALID,0,VALID,100,VALID,0.20377,VALID,19.3449,VALID,5,VALID,0.931726,
2005-12-29, 02:46:00,VALID,916.951,VALID,0,VALID,100,VALID,0.20377,VALID,19.322,VALID,354,VALID,0.920455,
2005-12-29, 02:47:00,VALID,916.961,VALID,0,VALID,100,VALID,0.220751,VALID,19.3059,VALID,351,VALID,1.13228,
2005-12-29, 02:48:00,VALID,916.951,VALID,0,VALID,100,VALID,0.237732,VALID,19.2865,VALID,349,VALID,1.15962,
2005-12-29, 02:49:00,VALID,916.961,VALID,0,VALID,100,VALID,0.20377,VALID,19.2996,VALID,360,VALID,1.00836,
2005-12-29, 02:50:00,VALID,916.957,VALID,0,VALID,100,VALID,0.135847,VALID,19.3073,VALID,352,VALID,0.567116,
2005-12-29, 02:51:00,VALID,916.94,VALID,0,VALID,100,VALID,0.135847,VALID,19.3337,VALID,347,VALID,0.446948,
2005-12-29, 02:52:00,VALID,916.906,VALID,0,VALID,100,VALID,0.220751,VALID,19.3419,VALID,3,VALID,0.726396,
2005-12-29, 02:53:00,VALID,916.879,VALID,0,VALID,100,VALID,0.237732,VALID,19.3511,VALID,355,VALID,0.919779,
2005-12-29, 02:54:00,VALID,916.863,VALID,0,VALID,100,VALID,0.254712,VALID,19.3474,VALID,7,VALID,0.542436,
2005-12-29, 02:55:00,VALID,916.836,VALID,0,VALID,100,VALID,0.254712,VALID,19.3606,VALID,5,VALID,1.22999,
2005-12-29, 02:56:00,VALID,916.826,VALID,0,VALID,100,VALID,0.237732,VALID,19.3712,VALID,353,VALID,1.32592,
2005-12-29, 02:57:00,VALID,916.82,VALID,0,VALID,100,VALID,0.271693,VALID,19.361,VALID,11,VALID,1.14946,
2005-12-29, 02:58:00,VALID,916.834,VALID,0,VALID,100,VALID,0.288674,VALID,19.3578,VALID,350,VALID,0.821671,
2005-12-29, 02:59:00,VALID,916.835,VALID,0,VALID,100,VALID,0.237732,VALID,19.3449,VALID,339,VALID,0.988867,
2005-12-29, 03:00:00,VALID,916.826,VALID,0,VALID,100,VALID,0.288674,VALID,19.3349,VALID,339,VALID,0.989383,
2005-12-29, 03:01:00,VALID,916.806,VALID,0,VALID,100,VALID,0.254712,VALID,19.329,VALID,331,VALID,0.898819,
2005-12-29, 03:02:00,VALID,916.814,VALID,0,VALID,100,VALID,0.271693,VALID,19.3285,VALID,327,VALID,1.11776,
2005-12-29, 03:03:00,VALID,916.825,VALID,0,VALID,100,VALID,0.237732,VALID,19.3185,VALID,309,VALID,0.984003,
2005-12-29, 03:04:00,VALID,916.844,VALID,0,VALID,100,VALID,0.220751,VALID,19.326,VALID,314,VALID,0.665104,
2005-12-29, 03:05:00,VALID,916.842,VALID,0,VALID,100,VALID,0.186789,VALID,19.3364,VALID,326,VALID,0.504278,
2005-12-29, 03:06:00,VALID,916.83,VALID,0,VALID,100,VALID,0.152827,VALID,19.3498,VALID,359,VALID,0.731831,
2005-12-29, 03:07:00,VALID,916.833,VALID,0,VALID,100,VALID,0.169808,VALID,19.3856,VALID,9,VALID,0.956076,
2005-12-29, 03:08:00,VALID,916.854,VALID,0,VALID,100,VALID,0.152827,VALID,19.3854,VALID,350,VALID,1.08576,
2005-12-29, 03:09:00,VALID,916.866,VALID,0,VALID,100,VALID,0.152827,VALID,19.3787,VALID,339,VALID,0.608648,
2005-12-29, 03:10:00,VALID,916.877,VALID,0,VALID,100,VALID,0.186789,VALID,19.369,VALID,9,VALID,0.752003,
2005-12-29, 03:11:00,VALID,916.88,VALID,0,VALID,100,VALID,0.186789,VALID,19.3951,VALID,357,VALID,0.738839,
2005-12-29, 03:12:00,VALID,916.858,VALID,0,VALID,100,VALID,0.152827,VALID,19.3921,VALID,4,VALID,0.576451,
2005-12-29, 03:13:00,VALID,916.864,VALID,0,VALID,100,VALID,0.169808,VALID,19.3884,VALID,9,VALID,0.578125,
2005-12-29, 03:14:00,VALID,916.862,VALID,0,VALID,100,VALID,0.169808,VALID,19.411,VALID,10,VALID,0.472565,
2005-12-29, 03:15:00,VALID,916.872,VALID,0,VALID,100,VALID,0.169808,VALID,19.3722,VALID,11,VALID,1.03356,
2005-12-29, 03:16:00,VALID,916.874,VALID,0,VALID,100,VALID,0.152827,VALID,19.3431,VALID,32,VALID,0.890008,
2005-12-29, 03:17:00,VALID,916.879,VALID,0,VALID,100,VALID,0.135847,VALID,19.3498,VALID,19,VALID,0.646391,
2005-12-29, 03:18:00,VALID,916.884,VALID,0,VALID,100,VALID,0.118866,VALID,19.3071,VALID,340,VALID,1.07617,
2005-12-29, 03:19:00,VALID,916.888,VALID,0,VALID,100,VALID,0.135847,VALID,19.2849,VALID,344,VALID,0.473292,
2005-12-29, 03:20:00,VALID,916.876,VALID,0,VALID,100,VALID,0.169808,VALID,19.2817,VALID,322,VALID,0.317645,
2005-12-29, 03:21:00,VALID,916.874,VALID,0,VALID,100,VALID,0.186789,VALID,19.2752,VALID,344,VALID,0.240057,
2005-12-29, 03:22:00,VALID,916.88,VALID,0,VALID,100,VALID,0.237732,VALID,19.2879,VALID,344,VALID,0.0327035,
2005-12-29, 03:23:00,VALID,916.883,VALID,0,VALID,100,VALID,0.186789,VALID,19.3076,VALID,344,VALID,0,
2005-12-29, 03:24:00,VALID,916.885,VALID,0,VALID,100,VALID,0.220751,VALID,19.3202,VALID,344,VALID,0.0012718,
2005-12-29, 03:25:00,VALID,916.892,VALID,0,VALID,100,VALID,0.220751,VALID,19.3434,VALID,344,VALID,0.00920139,
2005-12-29, 03:26:00,VALID,916.883,VALID,0,VALID,100,VALID,0.20377,VALID,19.3724,VALID,344,VALID,0,
2005-12-29, 03:27:00,VALID,916.876,VALID,0,VALID,100,VALID,0.20377,VALID,19.3819,VALID,344,VALID,0,
2005-12-29, 03:28:00,VALID,916.876,VALID,0,VALID,100,VALID,0.20377,VALID,19.3881,VALID,344,VALID,0,
2005-12-29, 03:29:00,VALID,916.868,VALID,0,VALID,100,VALID,0.20377,VALID,19.3943,VALID,344,VALID,0.0896577,
2005-12-29, 03:30:00,VALID,916.854,VALID,0,VALID,100,VALID,0.254712,VALID,19.3754,VALID,344,VALID,0.221168,
2005-12-29, 03:31:00,VALID,916.863,VALID,0,VALID,100,VALID,0.169808,VALID,19.3523,VALID,344,VALID,0.0174419,
2005-12-29, 03:32:00,VALID,916.881,VALID,0,VALID,100,VALID,0.220751,VALID,19.362,VALID,344,VALID,0,
2005-12-29, 03:33:00,VALID,916.893,VALID,0,VALID,100,VALID,0.220751,VALID,19.3879,VALID,344,VALID,0.000181686,
2005-12-29, 03:34:00,VALID,916.895,VALID,0,VALID,100,VALID,0.186789,VALID,19.3849,VALID,344,VALID,0.0417878,
2005-12-29, 03:35:00,VALID,916.889,VALID,0,VALID,100,VALID,0.20377,VALID,19.4038,VALID,346,VALID,0.186111,
2005-12-29, 03:36:00,VALID,916.903,VALID,0,VALID,100,VALID,0.220751,VALID,19.4331,VALID,346,VALID,0,
2005-12-29, 03:37:00,VALID,916.912,VALID,0,VALID,100,VALID,0.152827,VALID,19.4463,VALID,346,VALID,0.0664063,
2005-12-29, 03:38:00,VALID,916.917,VALID,0,VALID,100,VALID,0.220751,VALID,19.4272,VALID,346,VALID,0.0261009,
2005-12-29, 03:39:00,VALID,916.923,VALID,0,VALID,100,VALID,0.254712,VALID,19.4011,VALID,346,VALID,0.0407366,
2005-12-29, 03:40:00,VALID,916.91,VALID,0,VALID,100,VALID,0.220751,VALID,19.3749,VALID,346,VALID,0.0830305,
2005-12-29, 03:41:00,VALID,916.9,VALID,0,VALID,100,VALID,0.186789,VALID,19.369,VALID,346,VALID,0,